Location: *
(48.7358°N, 0.3111°E)
Time: 07:19:05
(UTC+00:00)

SKYMED 2 - Pass Details

Date: 22 October 2019
Orbit: 621 x 623 km, 97.9° (Epoch: 16 November)

Event Time Altitude Azimuth Distance (km) Brightness Sun altitude
Rises 04:36:14 0° 150° (SSE) 2,893 7.3 -19.2°
Reaches altitude 10° 04:38:27 10° 146° (SE) 1,991 6.5 -18.9°
Maximum altitude 04:42:39 50° 70° (ENE) 796 4.5 -18.2°
Drops below altitude 10° 04:46:51 10° 356° (N) 2,005 6.2 -17.5°
Sets 04:49:06 0° 351° (N) 2,917 7.0 -17.1°
